Date String (YYYY-MM-DD hh:mm:ss) UTC,Instrument flags,Ambient pressure (hPa),Sample flow (lpm),Bypass flow (lpm),Sample temperature (°C),Ambient temperature (°C),ASC tube jacket temperature (°C),LED temperature (°C),Box temperature (°C),Sample RH (%),Span deviation,Mass concentration (μg/m³),Mass concentration (μg/m³),Mass concentration (μg/m³)
DateTimeUTC,F1_M11,P_M11,Q1_M11,Q2_M11,T1_M11,T2_M11,T3_M11,T4_M11,T5_M11,U1_M11,ZSPAN_M11,X0_M11,X2_M11,X1_M11
2022-02-13 21:00:00,,0828.5,5.02,0.00,25.2,24.1,00.0,34.0,27.0,07.4,0000.0,0002.59,0000.77,0000.58
2022-02-13 21:01:00,,0828.4,5.00,0.00,25.2,24.2,00.0,34.0,27.0,08.1,0000.0,0002.57,0000.77,0000.58
2022-02-13 21:02:00,,0828.4,5.00,0.00,25.2,24.2,00.0,34.0,27.0,07.3,0000.0,0002.59,0000.78,0000.58
2022-02-13 21:03:00,,0828.5,4.98,0.00,25.2,24.2,00.0,34.0,27.0,07.3,0000.0,0001.83,0000.80,0000.58
2022-02-13 21:04:00,,0828.4,5.01,0.00,25.2,24.2,00.0,34.0,27.1,06.7,0000.0,0001.39,0000.79,0000.57
2022-02-13 21:05:00,,0828.5,4.99,0.00,25.2,24.2,00.0,34.1,27.0,06.0,0000.0,0001.39,0000.78,0000.56
2022-02-13 21:06:00,,0828.5,5.00,0.00,25.2,24.2,00.0,34.1,27.1,06.2,0000.0,0001.36,0000.78,0000.56
2022-02-13 21:07:00,,0828.5,5.00,0.00,25.3,24.3,00.0,34.1,27.1,06.7,0000.0,0001.32,0000.77,0000.57
2022-02-13 21:08:00,,0828.4,4.99,0.00,25.3,24.3,00.0,34.1,27.1,06.2,0000.0,0001.34,0000.78,0000.57
2022-02-13 21:09:00,,0828.5,4.99,0.00,25.3,24.3,00.0,34.1,27.1,06.7,0000.0,0001.27,0000.76,0000.57
2022-02-13 21:10:00,,0828.5,5.00,0.00,25.3,24.4,00.0,34.1,27.2,06.6,0000.0,0001.16,0000.74,0000.57
2022-02-13 21:11:00,,0828.4,4.99,0.00,25.3,24.4,00.0,34.2,27.2,06.7,0000.0,0001.14,0000.76,0000.57
2022-02-13 21:12:00,,0828.4,5.01,0.00,25.3,24.4,00.0,34.2,27.1,06.0,0000.0,0001.19,0000.74,0000.57
2022-02-13 21:13:00,,0828.4,4.99,0.00,25.3,24.4,00.0,34.2,27.1,06.7,0000.0,0001.34,0000.75,0000.58
2022-02-13 21:14:00,,0828.4,4.99,0.00,25.3,24.4,00.0,34.2,27.2,06.0,0000.0,0001.35,0000.76,0000.59
2022-02-13 21:15:00,,0828.4,5.01,0.00,25.4,24.4,00.0,34.2,27.2,05.9,0000.0,0001.35,0000.77,0000.59
2022-02-13 21:16:00,,0828.3,4.99,0.00,25.4,24.4,00.0,34.2,27.1,06.7,0000.0,0001.32,0000.76,0000.60
2022-02-13 21:17:00,,0828.3,5.00,0.00,25.4,24.4,00.0,34.2,27.1,06.6,0000.0,0001.34,0000.77,0000.60
2022-02-13 21:18:00,,0828.4,5.00,0.00,25.4,24.4,00.0,34.2,27.2,06.6,0000.0,0001.33,0000.76,0000.59
2022-02-13 21:19:00,,0828.4,4.99,0.00,25.4,24.4,00.0,34.3,27.2,06.7,0000.0,0001.28,0000.75,0000.60
2022-02-13 21:20:00,,0828.4,5.00,0.00,25.4,24.5,00.0,34.3,27.2,06.7,0000.0,0001.25,0000.74,0000.60
2022-02-13 21:21:00,,0828.3,5.00,0.00,25.4,24.5,00.0,34.3,27.2,06.3,0000.0,0002.17,0000.74,0000.60
2022-02-13 21:22:00,,0828.2,5.00,0.00,25.4,24.5,00.0,34.3,27.2,06.5,0000.0,0002.26,0000.73,0000.59
2022-02-13 21:23:00,,0828.3,5.00,0.00,25.4,24.5,00.0,34.3,27.2,06.5,0000.0,0002.22,0000.73,0000.58
2022-02-13 21:24:00,,0828.2,5.00,0.00,25.4,24.5,00.0,34.3,27.1,06.7,0000.0,0002.07,0000.72,0000.58
2022-02-13 21:25:00,,0828.2,5.00,0.00,25.3,24.5,00.0,34.3,27.1,06.0,0000.0,0002.18,0000.72,0000.57
2022-02-13 21:26:00,,0828.2,5.00,0.00,25.3,24.5,00.0,34.3,27.2,06.5,0000.0,0002.23,0000.72,0000.57
2022-02-13 21:27:00,,0828.1,4.99,0.00,25.3,24.5,00.0,34.3,27.2,06.6,0000.0,0002.28,0000.73,0000.57
2022-02-13 21:28:00,,0828.2,5.00,0.00,25.3,24.5,00.0,34.3,27.2,06.3,0000.0,0002.28,0000.74,0000.57
2022-02-13 21:29:00,,0828.3,5.01,0.00,25.3,24.5,00.0,34.3,27.2,06.4,0000.0,0002.27,0000.74,0000.57
2022-02-13 21:30:00,,0828.2,5.01,0.00,25.3,24.5,00.0,34.3,27.1,06.8,0000.0,0002.30,0000.75,0000.57
2022-02-13 21:31:00,,0828.2,5.01,0.00,25.3,24.5,00.0,34.3,27.1,07.0,0000.0,0002.31,0000.75,0000.56
2022-02-13 21:32:00,,0828.2,5.00,0.00,25.3,24.5,00.0,34.3,27.1,07.2,0000.0,0001.54,0000.76,0000.56
2022-02-13 21:33:00,,0828.2,4.99,0.00,25.3,24.4,00.0,34.3,27.1,06.8,0000.0,0001.35,0000.76,0000.56
2022-02-13 21:34:00,,0828.2,5.01,0.00,25.3,24.5,00.0,34.3,27.1,06.6,0000.0,0001.45,0000.81,0000.56
2022-02-13 21:35:00,,0828.2,4.99,0.00,25.3,24.4,00.0,34.3,27.1,06.8,0000.0,0001.45,0000.81,0000.56
2022-02-13 21:36:00,,0828.3,5.01,0.00,25.3,24.4,00.0,34.3,27.1,06.9,0000.0,0001.32,0000.80,0000.55
2022-02-13 21:37:00,,0828.2,4.99,0.00,25.3,24.4,00.0,34.3,27.1,07.1,0000.0,0001.27,0000.80,0000.54
2022-02-13 21:38:00,,0828.2,5.00,0.00,25.3,24.4,00.0,34.3,27.1,06.9,0000.0,0001.26,0000.79,0000.53
2022-02-13 21:39:00,,0828.2,4.99,0.00,25.3,24.4,00.0,34.3,27.1,06.6,0000.0,0001.24,0000.77,0000.52
2022-02-13 21:40:00,,0828.3,5.00,0.00,25.3,24.4,00.0,34.3,27.1,06.3,0000.0,0001.31,0000.78,0000.52
2022-02-13 21:41:00,,0828.3,5.00,0.00,25.3,24.4,00.0,34.3,27.1,06.6,0000.0,0001.34,0000.78,0000.51
2022-02-13 21:42:00,,0828.3,5.00,0.00,25.4,24.4,00.0,34.3,27.1,07.2,0000.0,0001.35,0000.79,0000.50
2022-02-13 21:43:00,,0828.3,4.99,0.00,25.3,24.3,00.0,34.3,27.1,07.1,0000.0,0001.39,0000.78,0000.50
2022-02-13 21:44:00,,0828.2,5.01,0.00,25.3,24.3,00.0,34.3,27.1,07.1,0000.0,0001.36,0000.78,0000.49
2022-02-13 21:45:00,,0828.2,4.98,0.00,25.3,24.3,00.0,34.3,27.1,06.9,0000.0,0001.21,0000.72,0000.49
2022-02-13 21:46:00,,0828.3,5.00,0.00,25.3,24.4,00.0,34.3,27.1,06.1,0000.0,0001.21,0000.72,0000.49
2022-02-13 21:47:00,,0828.2,5.01,0.00,25.3,24.4,00.0,34.3,27.1,06.6,0000.0,0001.16,0000.69,0000.50
2022-02-13 21:48:00,,0828.3,4.99,0.00,25.3,24.4,00.0,34.3,27.1,06.4,0000.0,0001.19,0000.70,0000.50
2022-02-13 21:49:00,,0828.3,5.00,0.00,25.3,24.3,00.0,34.3,27.0,07.1,0000.0,0002.47,0000.69,0000.49
2022-02-13 21:50:00,,0828.3,4.99,0.00,25.3,24.3,00.0,34.3,27.0,07.3,0000.0,0002.83,0000.70,0000.50
2022-02-13 21:51:00,,0828.3,5.01,0.00,25.3,24.3,00.0,34.3,27.1,07.1,0000.0,0002.78,0000.68,0000.50
2022-02-13 21:52:00,,0828.2,4.98,0.00,25.3,24.3,00.0,34.3,27.1,06.9,0000.0,0002.68,0000.64,0000.49
2022-02-13 21:53:00,,0828.2,5.01,0.00,25.3,24.3,00.0,34.3,27.1,06.6,0000.0,0002.63,0000.62,0000.48
2022-02-13 21:54:00,,0828.3,4.99,0.00,25.3,24.4,00.0,34.3,27.1,06.9,0000.0,0002.57,0000.61,0000.48
2022-02-13 21:55:00,,0828.3,4.99,0.00,25.3,24.4,00.0,34.3,27.1,06.8,0000.0,0002.56,0000.60,0000.48
2022-02-13 21:56:00,,0828.2,5.02,0.00,25.3,24.4,00.0,34.3,27.1,07.2,0000.0,0002.58,0000.61,0000.48
2022-02-13 21:57:00,,0828.2,4.99,0.00,25.3,24.3,00.0,34.3,27.0,06.5,0000.0,0002.62,0000.62,0000.48
2022-02-13 21:58:00,,0828.2,5.00,0.00,25.3,24.4,00.0,34.3,27.1,06.4,0000.0,0002.67,0000.64,0000.48
2022-02-13 21:59:00,,0828.2,4.98,0.00,25.3,24.4,00.0,34.3,26.9,06.0,0000.0,0002.65,0000.63,0000.49
